ICO G1

Last updated on Sat Jun 14 2025 00:02:44 GMT+0000 (Coordinated Universal Time)

1 32763U 08016A 25163.98204024 -.00000159 00000+0 00000+0 0 9996 2 32763 5.4430 36.8525 0002058 41.8424 83.5183 1.00271897 62849
UTC large
Height (km)
Speed (km/s)
/
Latitude / Longitude
Inclination (degrees)
Orbital Period (minutes)
Azimuth
Elevation
Range (km)
Doppler Factor

Next 0 passes for location: London (51.5072 / 0.1276)

Sorry there are no passes over London.